TimeEDT,TemperatureF,Dew PointF,Humidity,Sea Level PressureIn,VisibilityMPH,Wind Direction,Wind SpeedMPH,Gust SpeedMPH,PrecipitationIn,Events,Conditions,WindDirDegrees,DateUTC
12:53 AM,68.0,60.1,76,30.20,10.0,ENE,6.9,-,N/A,,Clear,70,2013-05-27 04:53:00
1:53 AM,68.0,61.0,78,30.20,10.0,East,4.6,-,N/A,,Clear,80,2013-05-27 05:53:00
2:53 AM,68.0,62.1,81,30.18,10.0,East,3.5,-,N/A,,Clear,90,2013-05-27 06:53:00
3:53 AM,66.0,62.1,87,30.17,10.0,NE,3.5,-,N/A,,Clear,50,2013-05-27 07:53:00
4:53 AM,64.9,62.1,90,30.16,10.0,NE,4.6,-,N/A,,Clear,40,2013-05-27 08:53:00
5:53 AM,64.9,62.1,90,30.17,10.0,NE,3.5,-,N/A,,Clear,40,2013-05-27 09:53:00
6:53 AM,64.9,62.1,90,30.18,10.0,NE,3.5,-,N/A,,Clear,50,2013-05-27 10:53:00
7:53 AM,69.1,64.0,84,30.19,10.0,ENE,6.9,-,N/A,,Clear,60,2013-05-27 11:53:00
8:53 AM,73.0,62.1,68,30.19,10.0,East,10.4,-,N/A,,Clear,100,2013-05-27 12:53:00
9:53 AM,77.0,60.1,56,30.19,10.0,East,12.7,-,N/A,,Clear,90,2013-05-27 13:53:00
10:53 AM,79.0,59.0,50,30.20,10.0,ESE,10.4,-,N/A,,Clear,110,2013-05-27 14:53:00
11:53 AM,81.0,57.9,45,30.20,10.0,Variable,4.6,-,N/A,,Clear,0,2013-05-27 15:53:00
12:53 PM,84.0,57.9,41,30.19,10.0,East,10.4,17.3,N/A,,Clear,90,2013-05-27 16:53:00
1:53 PM,86.0,59.0,40,30.18,10.0,ENE,11.5,-,N/A,,Partly Cloudy,70,2013-05-27 17:53:00
2:53 PM,86.0,59.0,40,30.15,10.0,East,10.4,-,N/A,,Partly Cloudy,100,2013-05-27 18:53:00
3:53 PM,87.1,59.0,39,30.13,10.0,East,15.0,19.6,N/A,,Partly Cloudy,90,2013-05-27 19:53:00
4:53 PM,88.0,59.0,37,30.11,10.0,ENE,15.0,-,N/A,,Partly Cloudy,70,2013-05-27 20:53:00
5:53 PM,86.0,59.0,40,30.10,10.0,ENE,16.1,-,N/A,,Clear,60,2013-05-27 21:53:00
6:53 PM,82.9,60.1,46,30.10,10.0,ENE,16.1,24.2,N/A,,Clear,60,2013-05-27 22:53:00
7:53 PM,79.0,61.0,54,30.12,10.0,ENE,15.0,-,N/A,,Clear,70,2013-05-27 23:53:00
8:53 PM,75.9,63.0,64,30.13,10.0,East,17.3,21.9,N/A,,Clear,80,2013-05-28 00:53:00
9:53 PM,73.9,64.0,71,30.15,10.0,East,15.0,-,N/A,,Clear,80,2013-05-28 01:53:00
10:53 PM,73.0,64.9,76,30.16,10.0,East,11.5,-,N/A,,Clear,80,2013-05-28 02:53:00
11:53 PM,72.0,66.0,81,30.17,10.0,East,9.2,-,N/A,,Clear,80,2013-05-28 03:53:00